FENGYUN 1C DEB

Satellite information

Favourite Embed

Satellite Type and Status

DEBRISIN ORBIT

Key statistics

Satellite FENGYUN 1C DEB at a glance.

Uptime

9554

Days in orbit

Revolutions

≈ 15.0

Per day

Orbit

SSO

Sun Synchronous Orbit

Inclination

99.1

Latest

Satellite identification and parameters

Extended collection of information and parameters for FENGYUN 1C DEB.

Object identification

Identified? True

Debris? True

Object name: FENGYUN 1C DEB

International designator: 1999-025BBS

Object number (NORAD): 30976

Object ID (CCSDS): 30976

Country: PEOPLES REPUBLIC OF CHINA (PRC)

Current information (Y/N): Y

RCS size: SMALL

Orbital parameters

Period: 95.708 minutes

Inclination: 99.1244 deg

SMA: 6930.948 km

Apoapsis: 579.922 km

Periapsis: 525.703 km

RAAN: 57.517 deg

Eccentricy: 0.0039114

Argument of periapsis: 334.8851 deg

Mean anomaly: 25.0466 deg

Mean motion: 15.04574952 rev/day

Mean motion (dot): 0.0008967 rev/day2

B* drag term: 0.0062165 1/REarth

Two-line elements (TLE)

Creation date: July 5, 2025, 10:56 p.m.

Reference frame: TEME

Reference center: EARTH

Epoch: July 5, 2025, 10:44 a.m. UTC

TLE line 0: 0 FENGYUN 1C DEB

TLE line 1: 1 30976U 99025BBS 25186.44727769 .00089670 00000-0 62165-2 0 9990

TLE line 2: 2 30976 99.1244 57.5170 0039114 334.8851 25.0466 15.04574952947129

Live tracking on map

Real-time ground track for satellite FENGYUN 1C DEB.

In-orbit conjunctions

A list of the most updated potential collisions computed for object FENGYUN 1C DEB.

Target Orbit TCA Probability of collision Miss distance Type
COSMOS 2251 DEB LEO 2024-11-15 16:33:19 0.0002821888 755.0 (m) DEBRIS
COSMOS 1538 LEO 2024-10-16 10:19:09 0.0001052634 785.0 (m) PAYLOAD
CZ-6A DEB SSO 2024-10-01 01:24:30 0.000128073 62.0 (m) DEBRIS

Associated space launch

Chinese polar orbiting meteorological satellite

FENGYUN 1C DEB was lifted into orbit during the mission ‘Long March 4B | Feng Yun 1C’, on board a Long March 4B space rocket.

The launch took place on May 10, 1999, 1:33 a.m. from Launch Complex 7.

For more information about the launch, click the button.

Launch to space Long March 4B | Feng Yun 1C
Long March 4B | Feng Yun 1C

Agency: N/A

Status: Launch Successful

Launch date: May 10, 1999, 1:33 a.m. UTC

Rocket: Long March 4B

Launch pad: Launch Complex 7

Location: Taiyuan Satellite Launch Center, People's Republic of China

...

Latest news about this satellite

There are no fresh news available about this satellite. Check back as we update our databases every day.


Newsletter sign-up

Weekly statistics, charts and insights to help you stay on top of the space industry.